Date String (YYYY-MM-DD hh:mm:ss) UTC,Instrument flags,absolute air pressure of the measurement (hPa),sample flow rate (lpm),inlet stack bypass flow (lpm),air temperature of the measurement (°C),ambient temperature measured by the external sensor (°C),aerosol sample conditioner tube jacket temperature (°C),OPC LED temperature (°C),internal box temperature (°C),relative humidity of the measurement (%),span deviation,mass concentration of particles derived from Lorenz-Mie calculation of OPC scattering (μg/m³),mass concentration of particles derived from Lorenz-Mie calculation of OPC scattering (μg/m³),mass concentration of particles derived from Lorenz-Mie calculation of OPC scattering (μg/m³)
DateTimeUTC,F1_M11,P_M11,Q1_M11,Q2_M11,T1_M11,T2_M11,T3_M11,T4_M11,T5_M11,U1_M11,ZSPAN_M11,X2_M11,X0_M11,X1_M11
2024-02-27 04:00:00,SystemResetWarning,0814.8,5.02,000.00,022.5,021.7,000.0,031.1,024.3,11.4,0000.0,0001.93,0006.36,0000.84
2024-02-27 04:01:00,SystemResetWarning,0814.8,5.00,000.00,022.5,021.7,000.0,031.1,024.3,11.4,0000.0,0001.92,0006.51,0000.83
2024-02-27 04:02:00,SystemResetWarning,0814.8,4.99,000.00,022.5,021.7,000.0,031.1,024.3,11.5,0000.0,0001.95,0007.15,0000.83
2024-02-27 04:03:00,SystemResetWarning,0814.8,4.99,000.00,022.5,021.7,000.0,031.1,024.3,11.5,0000.0,0001.96,0007.41,0000.83
2024-02-27 04:04:00,SystemResetWarning,0814.9,5.01,000.00,022.5,021.7,000.0,031.1,024.3,11.6,0000.0,0001.90,0007.54,0000.83
2024-02-27 04:05:00,SystemResetWarning,0815.0,5.01,000.00,022.5,021.7,000.0,031.0,024.3,11.7,0000.0,0001.85,0007.93,0000.82
2024-02-27 04:06:00,SystemResetWarning,0814.9,5.00,000.00,022.5,021.7,000.0,031.0,024.3,11.8,0000.0,0001.83,0008.11,0000.82
2024-02-27 04:07:00,SystemResetWarning,0814.9,4.99,000.00,022.5,021.6,000.0,031.0,024.3,11.8,0000.0,0001.79,0008.07,0000.81
2024-02-27 04:08:00,SystemResetWarning,0814.9,5.00,000.00,022.5,021.6,000.0,031.0,024.3,11.9,0000.0,0001.76,0007.33,0000.80
2024-02-27 04:09:00,SystemResetWarning,0814.9,5.00,000.00,022.5,021.6,000.0,031.0,024.3,11.9,0000.0,0001.66,0006.80,0000.79
2024-02-27 04:10:00,SystemResetWarning,0814.9,5.00,000.00,022.5,021.6,000.0,031.0,024.2,12.0,0000.0,0001.62,0006.34,0000.78
2024-02-27 04:11:00,SystemResetWarning,0814.8,4.99,000.00,022.5,021.6,000.0,031.0,024.2,12.0,0000.0,0001.68,0006.56,0000.80
2024-02-27 04:12:00,SystemResetWarning,0814.8,5.00,000.00,022.4,021.6,000.0,031.0,024.2,12.1,0000.0,0001.64,0006.33,0000.81
2024-02-27 04:13:00,SystemResetWarning,0814.8,5.01,000.00,022.4,021.6,000.0,031.0,024.2,12.0,0000.0,0001.62,0005.76,0000.80
2024-02-27 04:14:00,SystemResetWarning,0814.8,5.01,000.00,022.4,021.6,000.0,031.0,024.2,12.1,0000.0,0001.64,0005.78,0000.80
2024-02-27 04:15:00,SystemResetWarning,0814.8,4.99,000.00,022.4,021.6,000.0,031.0,024.2,12.1,0000.0,0001.63,0005.56,0000.79
2024-02-27 04:16:00,SystemResetWarning,0814.8,4.99,000.00,022.4,021.5,000.0,031.0,024.2,12.2,0000.0,0001.70,0004.97,0000.79
2024-02-27 04:17:00,SystemResetWarning,0814.8,4.99,000.00,022.4,021.5,000.0,030.9,024.2,12.2,0000.0,0001.77,0004.78,0000.79
2024-02-27 04:18:00,SystemResetWarning,0814.8,5.01,000.00,022.4,021.5,000.0,030.9,024.2,12.2,0000.0,0001.81,0005.09,0000.78
2024-02-27 04:19:00,SystemResetWarning,0814.8,5.01,000.00,022.4,021.5,000.0,030.9,024.2,12.2,0000.0,0001.78,0005.27,0000.78
2024-02-27 04:20:00,SystemResetWarning,0814.8,5.01,000.00,022.4,021.5,000.0,030.9,024.1,12.1,0000.0,0001.81,0006.04,0000.78
2024-02-27 04:21:00,SystemResetWarning,0814.8,4.99,000.00,022.4,021.5,000.0,030.9,024.1,12.1,0000.0,0001.80,0007.20,0000.78
2024-02-27 04:22:00,SystemResetWarning,0814.8,4.99,000.00,022.3,021.5,000.0,030.9,024.1,12.2,0000.0,0001.72,0007.00,0000.77
2024-02-27 04:23:00,SystemResetWarning,0814.8,4.99,000.00,022.3,021.4,000.0,030.9,024.1,12.2,0000.0,0001.74,0007.08,0000.76
2024-02-27 04:24:00,SystemResetWarning,0814.8,5.00,000.00,022.3,021.4,000.0,030.9,024.1,12.3,0000.0,0001.77,0007.20,0000.77
2024-02-27 04:25:00,SystemResetWarning,0814.8,5.00,000.00,022.3,021.4,000.0,030.9,024.1,12.3,0000.0,0001.77,0007.46,0000.76
2024-02-27 04:26:00,SystemResetWarning,0814.7,5.02,000.00,022.3,021.4,000.0,030.8,024.1,12.4,0000.0,0001.77,0008.14,0000.76
2024-02-27 04:27:00,SystemResetWarning,0814.7,5.00,000.00,022.3,021.4,000.0,030.8,024.0,12.4,0000.0,0001.74,0008.23,0000.75
2024-02-27 04:28:00,SystemResetWarning,0814.6,4.99,000.00,022.3,021.4,000.0,030.8,024.0,12.5,0000.0,0001.69,0008.09,0000.75
2024-02-27 04:29:00,SystemResetWarning,0814.6,5.00,000.00,022.3,021.4,000.0,030.8,024.1,12.6,0000.0,0001.64,0008.05,0000.76
2024-02-27 04:30:00,SystemResetWarning,0814.5,5.00,000.00,022.3,021.4,000.0,030.8,024.0,12.6,0000.0,0001.68,0008.07,0000.77
2024-02-27 04:31:00,SystemResetWarning,0814.4,5.00,000.00,022.2,021.4,000.0,030.8,024.0,12.7,0000.0,0001.67,0007.75,0000.78
2024-02-27 04:32:00,SystemResetWarning,0814.3,5.00,000.00,022.2,021.4,000.0,030.8,024.0,12.7,0000.0,0001.70,0007.17,0000.77
2024-02-27 04:33:00,SystemResetWarning,0814.4,5.00,000.00,022.2,021.4,000.0,030.8,024.0,12.7,0000.0,0001.73,0007.30,0000.78
2024-02-27 04:34:00,SystemResetWarning,0814.5,5.01,000.00,022.2,021.4,000.0,030.8,024.0,12.8,0000.0,0001.73,0007.31,0000.78
2024-02-27 04:35:00,SystemResetWarning,0814.5,5.01,000.00,022.2,021.3,000.0,030.8,024.0,12.8,0000.0,0001.76,0007.44,0000.77
2024-02-27 04:36:00,SystemResetWarning,0814.5,5.00,000.00,022.2,021.4,000.0,030.7,024.0,12.8,0000.0,0001.81,0006.73,0000.78
2024-02-27 04:37:00,SystemResetWarning,0814.5,5.00,000.00,022.2,021.4,000.0,030.7,024.0,12.8,0000.0,0001.82,0005.67,0000.79
2024-02-27 04:38:00,SystemResetWarning,0814.4,4.99,000.00,022.2,021.3,000.0,030.7,024.0,12.9,0000.0,0001.80,0005.32,0000.80
2024-02-27 04:39:00,SystemResetWarning,0814.4,5.00,000.00,022.2,021.3,000.0,030.7,023.9,12.9,0000.0,0001.77,0005.81,0000.80
2024-02-27 04:40:00,SystemResetWarning,0814.3,5.00,000.00,022.2,021.3,000.0,030.7,024.0,12.9,0000.0,0001.74,0007.25,0000.79
2024-02-27 04:41:00,SystemResetWarning,0814.3,5.01,000.00,022.2,021.3,000.0,030.7,024.0,12.9,0000.0,0001.73,0007.62,0000.80
2024-02-27 04:42:00,SystemResetWarning,0814.3,5.01,000.00,022.2,021.3,000.0,030.7,023.9,12.9,0000.0,0001.71,0007.57,0000.81
2024-02-27 04:43:00,SystemResetWarning,0814.3,4.99,000.00,022.2,021.3,000.0,030.7,023.9,13.0,0000.0,0001.69,0007.52,0000.82
2024-02-27 04:44:00,SystemResetWarning,0814.3,5.00,000.00,022.1,021.3,000.0,030.7,023.9,13.0,0000.0,0001.67,0007.41,0000.81
2024-02-27 04:45:00,SystemResetWarning,0814.3,5.00,000.00,022.1,021.3,000.0,030.7,023.9,13.0,0000.0,0001.67,0007.54,0000.81
2024-02-27 04:46:00,SystemResetWarning,0814.3,5.00,000.00,022.1,021.3,000.0,030.7,023.9,12.9,0000.0,0001.61,0007.65,0000.81
2024-02-27 04:47:00,SystemResetWarning,0814.3,5.01,000.00,022.1,021.3,000.0,030.7,023.9,13.0,0000.0,0001.53,0007.52,0000.80
2024-02-27 04:48:00,SystemResetWarning,0814.3,5.01,000.00,022.1,021.3,000.0,030.6,023.9,13.1,0000.0,0001.55,0007.50,0000.81
2024-02-27 04:49:00,SystemResetWarning,0814.3,5.00,000.00,022.1,021.3,000.0,030.6,023.9,13.1,0000.0,0001.61,0007.67,0000.81
2024-02-27 04:50:00,SystemResetWarning,0814.3,4.99,000.00,022.1,021.3,000.0,030.6,023.9,13.1,0000.0,0001.67,0007.49,0000.82
2024-02-27 04:51:00,SystemResetWarning,0814.3,4.99,000.00,022.1,021.3,000.0,030.6,023.9,13.0,0000.0,0001.77,0006.66,0000.82
2024-02-27 04:52:00,SystemResetWarning,0814.3,5.00,000.00,022.1,021.3,000.0,030.6,023.9,12.9,0000.0,0001.81,0005.10,0000.82
2024-02-27 04:53:00,SystemResetWarning,0814.3,5.01,000.00,022.1,021.3,000.0,030.6,023.9,12.9,0000.0,0001.85,0005.25,0000.82
2024-02-27 04:54:00,SystemResetWarning,0814.3,5.00,000.00,022.1,021.3,000.0,030.6,023.9,12.8,0000.0,0001.88,0005.17,0000.82
2024-02-27 04:55:00,SystemResetWarning,0814.3,5.01,000.00,022.1,021.3,000.0,030.6,023.9,12.9,0000.0,0001.95,0005.42,0000.83
2024-02-27 04:56:00,SystemResetWarning,0814.3,5.00,000.00,022.1,021.2,000.0,030.6,023.9,13.0,0000.0,0001.98,0005.54,0000.83
2024-02-27 04:57:00,SystemResetWarning,0814.3,5.01,000.00,022.1,021.2,000.0,030.6,023.8,13.0,0000.0,0001.96,0004.86,0000.84
2024-02-27 04:58:00,SystemResetWarning,0814.4,4.99,000.00,022.1,021.2,000.0,030.6,023.8,13.1,0000.0,0002.04,0005.10,0000.85
2024-02-27 04:59:00,SystemResetWarning,0814.4,5.00,000.00,022.0,021.2,000.0,030.6,023.8,13.2,0000.0,0002.00,0005.23,0000.86
